When you browse on this site, cookies collect data to enhance your experience and personalize the content and advertising you see.
Visit our Privacy Policy to learn more. By continuing to use the site, you agree to this use of cookies and data.
  • In Österreich
  • Länderverzeichnis
  • Für 7 Tage
  • Wassertemperatur
  • Wetterkarte
  • News
  • Widgets
  • user-avatar
    Anmelden

    Stündliche Wetter Plowdiw

    Heute, 18 Oktober, Freitag

    Zeit Temperatur Niederschläge Wind Luftdruck Luftfeuchtigkeit
    00:00 +18°C° 0 mm 1 m/S 740 mmHg 60%
    01:00 +18°C° 0 mm 1 m/S 740 mmHg 61%
    02:00 +18°C° 0 mm 1 m/S 740 mmHg 61%
    03:00 +16°C° 0 mm 1 m/S 740 mmHg 62%
    04:00 +16°C° 0 mm 1 m/S 740 mmHg 62%
    05:00 +16°C° 0 mm 1 m/S 740 mmHg 63%
    06:00 +18°C° 0 mm 1 m/S 740 mmHg 60%
    07:00 +17°C° 0 mm 0 m/S 740 mmHg 57%
    08:00 +18°C° 0 mm 0 m/S 740 mmHg 54%
    09:00 +22°C° 0 mm 1 m/S 740 mmHg 49%
    10:00 +24°C° 0 mm 1 m/S 741 mmHg 43%
    11:00 +26°C° 0 mm 1 m/S 741 mmHg 38%
    12:00 +26°C° 0 mm 2 m/S 740 mmHg 37%
    13:00 +27°C° 0 mm 2 m/S 740 mmHg 36%
    14:00 +27°C° 0 mm 2 m/S 739 mmHg 35%
    15:00 +26°C° 0.1 mm 2 m/S 739 mmHg 39%
    16:00 +25°C° 0.1 mm 1 m/S 739 mmHg 44%
    17:00 +24°C° 0.1 mm 1 m/S 739 mmHg 49%
    18:00 +23°C° 0 mm 1 m/S 739 mmHg 53%
    19:00 +21°C° 0 mm 1 m/S 739 mmHg 57%
    20:00 +20°C° 0 mm 1 m/S 739 mmHg 61%
    21:00 +19°C° 0 mm 1 m/S 739 mmHg 63%
    22:00 +19°C° 0 mm 1 m/S 739 mmHg 64%
    23:00 +19°C° 0 mm 1 m/S 739 mmHg 66%

    Morgen, 19 Oktober, Samstag

    Zeit Temperatur Niederschläge Wind Luftdruck Luftfeuchtigkeit
    00:00 +18°C° 0 mm 1 m/S 739 mmHg 67%
    01:00 +18°C° 0 mm 1 m/S 739 mmHg 68%
    02:00 +18°C° 0 mm 1 m/S 739 mmHg 69%
    03:00 +18°C° 0 mm 1 m/S 739 mmHg 69%
    04:00 +16°C° 0 mm 1 m/S 739 mmHg 69%
    05:00 +16°C° 0 mm 1 m/S 739 mmHg 70%
    06:00 +18°C° 0 mm 1 m/S 740 mmHg 66%
    07:00 +17°C° 0 mm 0 m/S 740 mmHg 63%
    08:00 +18°C° 0 mm 0 m/S 740 mmHg 59%
    09:00 +22°C° 0 mm 1 m/S 740 mmHg 53%
    10:00 +24°C° 0 mm 1 m/S 740 mmHg 47%
    11:00 +26°C° 0 mm 1 m/S 740 mmHg 41%
    12:00 +26°C° 0 mm 2 m/S 740 mmHg 40%
    13:00 +27°C° 0 mm 2 m/S 740 mmHg 40%
    14:00 +27°C° 0 mm 2 m/S 740 mmHg 39%
    15:00 +26°C° 0.1 mm 2 m/S 739 mmHg 43%
    16:00 +25°C° 0.1 mm 1 m/S 739 mmHg 48%
    17:00 +24°C° 0.1 mm 1 m/S 739 mmHg 52%
    18:00 +23°C° 0 mm 1 m/S 739 mmHg 57%
    19:00 +21°C° 0 mm 1 m/S 740 mmHg 61%
    20:00 +20°C° 0 mm 1 m/S 740 mmHg 65%
    21:00 +20°C° 0 mm 1 m/S 740 mmHg 66%
    22:00 +19°C° 0 mm 1 m/S 740 mmHg 67%
    23:00 +19°C° 0 mm 1 m/S 741 mmHg 68%

    übermorgen, 20 Oktober, Sonntag

    Zeit Temperatur Niederschläge Wind Luftdruck Luftfeuchtigkeit
    00:00 +19°C° 0 mm 1 m/S 741 mmHg 69%
    01:00 +18°C° 0 mm 1 m/S 741 mmHg 70%
    02:00 +18°C° 0 mm 1 m/S 741 mmHg 70%
    03:00 +18°C° 0 mm 1 m/S 741 mmHg 70%
    04:00 +18°C° 0 mm 1 m/S 741 mmHg 71%
    05:00 +16°C° 0 mm 1 m/S 741 mmHg 71%
    06:00 +18°C° 0 mm 1 m/S 741 mmHg 67%
    07:00 +19°C° 0 mm 1 m/S 741 mmHg 63%
    08:00 +18°C° 0 mm 0 m/S 741 mmHg 60%
    09:00 +22°C° 0 mm 1 m/S 741 mmHg 53%
    10:00 +24°C° 0 mm 1 m/S 742 mmHg 47%
    11:00 +27°C° 0 mm 1 m/S 742 mmHg 40%
    12:00 +27°C° 0 mm 1 m/S 742 mmHg 39%
    13:00 +28°C° 0 mm 2 m/S 741 mmHg 38%
    14:00 +28°C° 0 mm 2 m/S 741 mmHg 37%
    15:00 +27°C° 0 mm 2 m/S 741 mmHg 41%
    16:00 +26°C° 0 mm 2 m/S 741 mmHg 46%
    17:00 +25°C° 0 mm 1 m/S 741 mmHg 50%
    18:00 +23°C° 0 mm 1 m/S 741 mmHg 54%
    19:00 +22°C° 0 mm 1 m/S 741 mmHg 58%
    20:00 +20°C° 0 mm 1 m/S 741 mmHg 62%
    21:00 +20°C° 0 mm 1 m/S 742 mmHg 64%
    22:00 +19°C° 0 mm 1 m/S 742 mmHg 65%
    23:00 +19°C° 0 mm 1 m/S 742 mmHg 66%

    21 Oktober, Montag

    Zeit Temperatur Niederschläge Wind Luftdruck Luftfeuchtigkeit
    00:00 +19°C° 0 mm 1 m/S 742 mmHg 67%
    01:00 +18°C° 0 mm 1 m/S 742 mmHg 68%
    02:00 +18°C° 0 mm 1 m/S 742 mmHg 69%
    03:00 +18°C° 0 mm 1 m/S 742 mmHg 70%
    04:00 +18°C° 0 mm 1 m/S 742 mmHg 70%
    05:00 +16°C° 0 mm 1 m/S 742 mmHg 71%
    06:00 +18°C° 0 mm 1 m/S 742 mmHg 67%
    07:00 +19°C° 0 mm 1 m/S 742 mmHg 64%
    08:00 +18°C° 0 mm 0 m/S 742 mmHg 60%
    09:00 +22°C° 0 mm 1 m/S 742 mmHg 54%
    10:00 +24°C° 0 mm 1 m/S 743 mmHg 48%
    11:00 +26°C° 0 mm 1 m/S 743 mmHg 41%
    12:00 +27°C° 0 mm 2 m/S 743 mmHg 39%
    13:00 +28°C° 0 mm 2 m/S 742 mmHg 36%
    14:00 +28°C° 0 mm 2 m/S 742 mmHg 34%
    15:00 +27°C° 0 mm 2 m/S 742 mmHg 37%
    16:00 +26°C° 0 mm 2 m/S 742 mmHg 41%
    17:00 +24°C° 0 mm 1 m/S 741 mmHg 44%
    18:00 +23°C° 0 mm 1 m/S 742 mmHg 46%
    19:00 +22°C° 0 mm 1 m/S 742 mmHg 48%
    20:00 +20°C° 0 mm 1 m/S 742 mmHg 50%
    21:00 +20°C° 0 mm 1 m/S 742 mmHg 52%
    22:00 +19°C° 0 mm 1 m/S 742 mmHg 53%
    23:00 +19°C° 0 mm 1 m/S 742 mmHg 55%

    22 Oktober, Dienstag

    Zeit Temperatur Niederschläge Wind Luftdruck Luftfeuchtigkeit
    00:00 +18°C° 0 mm 1 m/S 742 mmHg 57%
    01:00 +18°C° 0 mm 1 m/S 742 mmHg 59%
    02:00 +18°C° 0 mm 1 m/S 742 mmHg 61%
    03:00 +16°C° 0 mm 1 m/S 742 mmHg 62%
    04:00 +16°C° 0 mm 1 m/S 742 mmHg 64%
    05:00 +16°C° 0 mm 1 m/S 742 mmHg 65%
    06:00 +18°C° 0 mm 1 m/S 742 mmHg 62%
    07:00 +19°C° 0 mm 1 m/S 742 mmHg 60%
    08:00 +20°C° 0 mm 1 m/S 743 mmHg 57%
    09:00 +22°C° 0 mm 1 m/S 743 mmHg 50%
    10:00 +24°C° 0 mm 1 m/S 743 mmHg 42%
    11:00 +27°C° 0 mm 1 m/S 743 mmHg 35%
    12:00 +27°C° 0 mm 1 m/S 742 mmHg 33%
    13:00 +28°C° 0 mm 1 m/S 742 mmHg 30%
    14:00 +29°C° 0 mm 2 m/S 742 mmHg 28%
    15:00 +27°C° 0 mm 1 m/S 742 mmHg 31%
    16:00 +26°C° 0 mm 1 m/S 741 mmHg 35%
    17:00 +24°C° 0 mm 1 m/S 741 mmHg 38%
    18:00 +23°C° 0 mm 1 m/S 741 mmHg 41%
    19:00 +22°C° 0 mm 1 m/S 742 mmHg 44%
    20:00 +20°C° 0 mm 1 m/S 742 mmHg 46%
    21:00 +20°C° 0 mm 1 m/S 742 mmHg 49%
    22:00 +19°C° 0 mm 1 m/S 742 mmHg 52%
    23:00 +19°C° 0 mm 1 m/S 742 mmHg 55%

    23 Oktober, Mittwoch

    Zeit Temperatur Niederschläge Wind Luftdruck Luftfeuchtigkeit
    00:00 +19°C° 0 mm 1 m/S 742 mmHg 56%
    01:00 +18°C° 0 mm 1 m/S 742 mmHg 57%
    02:00 +18°C° 0 mm 1 m/S 742 mmHg 59%
    03:00 +18°C° 0 mm 1 m/S 742 mmHg 60%
    04:00 +16°C° 0 mm 1 m/S 742 mmHg 60%
    05:00 +16°C° 0 mm 1 m/S 742 mmHg 61%
    06:00 +18°C° 0 mm 1 m/S 743 mmHg 59%
    07:00 +19°C° 0 mm 1 m/S 743 mmHg 57%
    08:00 +20°C° 0 mm 1 m/S 743 mmHg 55%
    09:00 +22°C° 0 mm 1 m/S 743 mmHg 49%
    10:00 +24°C° 0 mm 1 m/S 743 mmHg 43%
    11:00 +26°C° 0 mm 1 m/S 743 mmHg 37%
    12:00 +26°C° 0 mm 2 m/S 743 mmHg 36%
    13:00 +27°C° 0 mm 2 m/S 742 mmHg 35%
    14:00 +27°C° 0 mm 2 m/S 742 mmHg 34%
    15:00 +26°C° 0 mm 2 m/S 742 mmHg 38%
    16:00 +25°C° 0 mm 2 m/S 742 mmHg 42%
    17:00 +23°C° 0 mm 1 m/S 741 mmHg 46%
    18:00 +22°C° 0 mm 1 m/S 742 mmHg 50%
    19:00 +21°C° 0 mm 1 m/S 742 mmHg 53%
    20:00 +19°C° 0 mm 1 m/S 742 mmHg 56%
    21:00 +19°C° 0 mm 1 m/S 742 mmHg 60%
    22:00 +18°C° 0 mm 1 m/S 742 mmHg 63%
    23:00 +18°C° 0 mm 1 m/S 743 mmHg 67%
    Mehr zeigen